Weather in Mustafakemalpasa

Turkey     40°02′08″N   28°24′38″E
temp.,
°C
wind,
m/s
gust,
m/s
humid.,
%
clouds,
%
prec.,
mm/h
press.,
hPa
HPBL,
m
26 february, fri
fri2600:00+3s11932 0.0 103222
03:00+2s00931 0.0 103122
06:00+2ese01910 0.0 103022
09:00+4nne00820 0.0 103042
12:00+9nnw21660 0.0 1028434
15:00+12n23580 0.0 1025643
18:00+10n23720 0.0 1024263
21:00+6wsw00840 0.0 102422
27 february, sat
sat2700:00+5sse11860 0.0 102322
03:00+4ssw01870 0.0 102222
06:00+4s00880 0.0 102122
09:00+6se00800 0.0 102149
12:00+11nnw21640 0.0 1019339
15:00+14nw21600 0.0 1017500
18:00+13nw22650 0.0 101662
21:00+7wsw11860 0.0 101722
28 february, sun
sun2800:00+7s11860 0.0 101822
03:00+6n11880 0.0 101922
06:00+4nnw01890 0.0 102022
09:00+6nw129330 0.1 1022176
12:00+7n5885100 0.1 1023627
15:00+7nne6881100 0.1 1023784
18:00+6ne4779100 0.1 1024929
21:00+3nne388770 0.1 1027310
1 march, mon
mon100:00+1nne22883 0.0 102829
03:000ene11892 0.0 102823
06:000ene12912 0.0 102830
09:00+2ne268014 0.0 1029309
12:00+7nne58591 0.0 10281326
15:00+7nne796246 0.1 10271425
18:00+5nne696497 0.1 10271104
21:00+2nne278298 0.1 1029230
2 march, tue
tue200:00+3nne2783100 0.1 1030683
03:00+2n3887100 0.3 1031609
06:000ne239171 0.3 1031113
09:00+2nne488480 0.6 1031816
12:00+5nne71068100 0.3 10311313
15:00+6nne81157100 0.4 10301645
18:00+5nne7106479 0.1 10301369
21:00+2nne397965 0.1 1032384